Springfield, IL

4:19 PM CST on December 07, 2016 (GMT -0600)
Capital

Weather History for KSPI - November, 2010

Change the Weather History Date:

Monday, November 29, 2010

  Actual Average Record
Temperature  
Mean Temperature 45 °F 36 °F  
Max Temperature 50 °F 45 °F 71 °F (1927)
Min Temperature 40 °F 28 °F 2 °F (1929)
Degree Days  
Heating Degree Days 20 29  
Month to date heating degree days 560 631  
Since 1 July heating degree days 848 1041  
Cooling Degree Days 0 0  
Month to date cooling degree days 0 0  
Year to date cooling degree days 1554 1121  
Moisture  
Dew Point 41 °F    
Average Humidity 78    
Maximum Humidity 93    
Minimum Humidity 62    
Precipitation  
Precipitation 0.64 in 0.10 in 1.50 in (1930)
Month to date precipitation 1.79 3.10  
Year to date precipitation 45.25 34.80  
Snow  
Snow 0.00 in 0.00 in 2.90 in (1964)
Month to date snowfall 0.0 0.5  
Since 1 July snowfall 0.0 0.5  
Since 1 September snowfall 0.0 0.5  
Snow Depth 0.00 in    
Sea Level Pressure  
Sea Level Pressure 29.80 in    
Wind  
Wind Speed 17 mph (SSE)    
Max Wind Speed 30 mph    
Max Gust Speed 43 mph    
Visibility 9 miles    
Events Rain    
T = Trace of Precipitation, MM = Missing Value Source: NWS Daily Summary

Daily Weather History Graph

Daily Weather History Graph

Search for Another Location

Airport or City:

Trip Planner

Search our weather history database for the weather conditions in past years. The results will help you decide how hot, cold, wet, or windy it might be!

Date:

Astronomy

Nov. 29, 2010 Rise Set
Actual Time 6:58 AM CST 4:35 PM CST
Civil Twilight 6:29 AM CST 5:04 PM CST
Nautical Twilight 5:55 AM CST 5:38 PM CST
Astronomical Twilight 5:23 AM CST 6:10 PM CST
Moon 12:05 AM CST (11/29) 12:35 PM CST (11/29)
Length of Visible Light 10h 35m
Length of Day
9h 36m
Last Quarter, 40% of the Moon is Illuminated
Nov 29
Last Quarter
Dec 5
New
Dec 13
First Quarter
Dec 21
Full
Dec 27
Last Quarter

Hourly Weather History & Observations

Time (CST) Temp. Windchill Dew Point Humidity Pressure Visibility Wind Dir Wind Speed Gust Speed Precip Events Conditions
12:52 AM 41.0 °F 33.5 °F 30.0 °F 65% 30.01 in 10.0 mi SSE 13.8 mph - N/A   Clear
1:52 AM 41.0 °F 33.5 °F 30.9 °F 67% 29.99 in 10.0 mi SSE 13.8 mph - N/A   Clear
2:52 AM 41.0 °F 32.8 °F 30.0 °F 65% 29.98 in 10.0 mi SSE 16.1 mph 21.9 mph N/A   Clear
3:52 AM 41.0 °F 32.5 °F 30.0 °F 65% 29.96 in 10.0 mi SSE 17.3 mph - N/A   Clear
4:52 AM 41.0 °F 33.1 °F 30.9 °F 67% 29.96 in 10.0 mi SSE 15.0 mph - N/A   Mostly Cloudy
5:52 AM 42.1 °F 32.8 °F 32.0 °F 67% 29.95 in 10.0 mi SSE 21.9 mph - N/A   Overcast
6:52 AM 42.8 °F 34.5 °F 32.0 °F 66% 29.94 in 10.0 mi SSE 18.4 mph 26.5 mph N/A   Overcast
7:52 AM 44.1 °F 35.7 °F 33.1 °F 65% 29.95 in 10.0 mi SSE 20.7 mph 28.8 mph 0.00 in   Overcast
8:52 AM 43.0 °F 34.0 °F 36.0 °F 76% 29.96 in 10.0 mi SSE 21.9 mph 29.9 mph 0.00 in   Overcast
9:52 AM 44.1 °F 36.8 °F 37.0 °F 76% 29.94 in 10.0 mi SSE 16.1 mph - 0.02 in Rain Light Rain
10:52 AM 46.0 °F 38.3 °F 37.9 °F 73% 29.91 in 10.0 mi South 20.7 mph - 0.00 in   Overcast
11:52 AM 46.9 °F - 39.9 °F 77% 29.85 in 10.0 mi SSE 23.0 mph 32.2 mph N/A   Overcast
12:52 PM 48.0 °F - 41.0 °F 77% 29.80 in 10.0 mi SSE 23.0 mph 33.4 mph N/A   Mostly Cloudy
1:52 PM 48.0 °F - 42.1 °F 80% 29.79 in 10.0 mi SSE 20.7 mph 25.3 mph N/A   Overcast
2:52 PM 48.0 °F - 44.1 °F 86% 29.75 in 10.0 mi SSE 17.3 mph - 0.05 in   Overcast
3:35 PM 48.2 °F - 44.6 °F 87% 29.74 in 7.0 mi SSE 26.5 mph 33.4 mph 0.01 in Rain Light Rain
3:52 PM 48.0 °F - 45.0 °F 89% 29.77 in 5.0 mi South 16.1 mph 28.8 mph 0.04 in Rain Rain
4:52 PM 48.9 °F - 46.0 °F 90% 29.71 in 5.0 mi SSE 19.6 mph 28.8 mph 0.17 in Rain Rain
5:52 PM 48.9 °F - 46.9 °F 93% 29.74 in 7.0 mi South 15.0 mph - 0.25 in Rain Rain
6:34 PM 50.0 °F - 46.4 °F 87% 29.70 in 8.0 mi SSE 19.6 mph - 0.07 in Rain Light Rain
6:52 PM 50.0 °F - 46.9 °F 89% 29.69 in 10.0 mi SSE 18.4 mph 27.6 mph 0.08 in Rain Light Rain
7:08 PM 50.0 °F - 46.4 °F 87% 29.70 in 10.0 mi South 12.7 mph 21.9 mph 0.01 in Rain Light Rain
7:52 PM 50.0 °F - 46.9 °F 89% 29.68 in 10.0 mi SSE 12.7 mph - 0.03 in   Mostly Cloudy
8:13 PM 50.0 °F - 46.4 °F 87% 29.68 in 10.0 mi South 10.4 mph - N/A   Overcast
8:52 PM 50.0 °F - 46.9 °F 89% 29.66 in 10.0 mi SSE 13.8 mph - N/A   Overcast
9:24 PM 50.0 °F - 46.4 °F 87% 29.69 in 10.0 mi South 11.5 mph - N/A   Overcast
9:52 PM 50.0 °F - 46.9 °F 89% 29.66 in 10.0 mi South 9.2 mph - N/A   Overcast
10:52 PM 50.0 °F - 48.0 °F 93% 29.67 in 10.0 mi SSW 10.4 mph - N/A   Overcast
11:19 PM 50.0 °F - 48.2 °F 94% 29.65 in 8.0 mi SW 6.9 mph - 0.00 in Rain Light Rain
11:52 PM 50.0 °F - 46.9 °F 89% 29.65 in 10.0 mi SSW 8.1 mph - 0.00 in   Overcast